Weather in Beregovoy

Russia / Amur Oblast     54°21′38″N   127°29′13″E
temp.,
°C
wind,
m/s
gust,
m/s
humid.,
%
clouds,
%
prec.,
mm/h
press.,
hPa
HPBL,
m
7 march, sun
sun700:00−25sw11940 0.0 102720
03:00−25n119734 0.0 102620
06:00−27nne11100100 0.0 102549
09:00−25nne1194100 0.1 1025133
12:00−20ne118099 0.0 1024292
15:00−16ene127888 0.0 1023356
18:00−20sse229668 0.0 102320
21:00−20sw229357 0.0 102524
8 march, mon
mon800:00−21sw22950 0.0 102428
03:00−22ssw119813 0.0 102333
06:00−20s1298100 0.0 102084
09:00−17ssw1492100 0.2 1019249
12:00−13sse1481100 0.1 1016363
15:00−12se2584100 0.2 1013426
18:00−13w0197100 1.4 101176
21:00−15nw2297100 1.6 101141
9 march, tue
tue900:00−19nw229994 0.0 101020
03:00−17wnw129497 0.0 101231
06:00−17wnw399090 0.0 1013177
09:00−11wnw7147259 0.0 1014720
12:00−7nw7126730 0.0 1015937
15:00−6nw7116715 0.0 1017972
18:00−9wnw512750 0.0 1019562
21:00−12wnw49810 0.0 1022188
10 march, wed
wed1000:00−15sw33850 0.0 102236
03:00−14ssw338116 0.0 102151
06:00−13ssw378698 0.0 1020144
09:00−11ssw378197 0.0 1018342
12:00−9ssw2687100 0.2 1015437
15:00−8wnw1389100 1.2 1015383
18:00−11nw1296100 0.2 101635
21:00−10nw5148288 0.2 1021525
11 march, thu
thu1100:00−13wnw4117533 0.0 1024325
03:00−15wnw4117417 0.0 1026312
06:00−16w35750 0.0 102875
09:00−11wsw22686 0.0 102888
12:00−6sw486079 0.0 1027953
15:00−5sw467055 0.0 1025817
18:00−8sw248722 0.0 1025104
21:00−12wsw229111 0.0 102721